Flag for U.S.A. Weather past 2 weeks in Lexington-Fayette, Kentucky, U.S.A.

Now
72 °F

Sunny.


Feels Like: 70 °F
Forecast: 68 / 88 °F
Wind: No wind

Location: Blue Grass Airport

Current Time: Jul 22, 2014 at 8:21:45 AM

Latest Report: Jul 22, 2014 at 7:54 AM


Visibility: 10 mi

Pressure: 30.11 "Hg

Humidity: 87%

Dew point: 68 °F

Location of Lexington-FayetteLocation

Historic Weather in Lexington-Fayette — Graph

°F

Lexington-Fayette temperature yesterday

Maximum temperature yesterday: 90 °F (at 4:54 PM)
Minimum temperature yesterday: 66 °F (at 5:54 AM)
Average temperature yesterday: 78 °F

Past Weeks' High & Low Weather Summary

 TemperatureHumidityPressure
High93 °F (Jul 13, 1:54 PM)96% (Jul 21, 1:56 AM)30.19 "Hg (Jul 21, 1:56 AM)
Low54 °F (Jul 16, 4:54 AM)36% (Jul 11, 4:54 PM)29.82 "Hg (Jul 8, 10:54 AM)
Average74 °F68%30.02 "Hg
* Reported Jul 7 6:54 AM — Jul 22 6:54 AM, Lexington-Fayette, Weather by CustomWeather, © 2014

Note: Actual official high and low records may vary slightly from our data, if they occured in-between our weather recording intervals... More about our weather records

Advertising

Lexington-Fayette weather history for previous 24 hours

 ConditionsComfort  
Time TempWeatherWind HumidityBarometerVisibility
6:54 AM
Jul 22
70 °FClear.No wind87%30.09 "Hg10 mi
5:54 AM70 °FClear.No wind90%30.08 "Hg10 mi
4:54 AM73 °FClear.3 mph81%30.06 "Hg10 mi
3:54 AM71 °FClear.No wind87%30.06 "Hg10 mi
2:54 AM70 °FClear.No wind90%30.06 "Hg10 mi
1:54 AM73 °FPassing clouds.No wind84%30.07 "Hg10 mi
12:54 AM74 °FClear.No wind79%30.08 "Hg10 mi
11:54 PM
Jul 21
77 °FClear.No wind71%30.07 "Hg10 mi
10:54 PM77 °FPassing clouds.6 mph71%30.08 "Hg10 mi
9:54 PM80 °FScattered clouds.6 mph64%30.06 "Hg10 mi
8:54 PM81 °FPartly sunny.7 mph62%30.06 "Hg10 mi
7:54 PM85 °FSunny.6 mph57%30.05 "Hg10 mi
6:54 PM88 °FSunny.3 mph48%30.04 "Hg10 mi
5:54 PM89 °FSunny.5 mph48%30.05 "Hg10 mi
4:54 PM90 °FPartly sunny.No wind47%30.05 "Hg10 mi
3:54 PM89 °FPassing clouds.7 mph46%30.06 "Hg10 mi
2:54 PM86 °FSunny.No wind49%30.07 "Hg10 mi
1:54 PM85 °FSunny.5 mph55%30.09 "Hg10 mi
12:54 PM85 °FSunny.3 mph57%30.09 "Hg10 mi
11:54 AM84 °FPartly sunny.No wind61%30.11 "Hg10 mi
10:54 AM80 °FPassing clouds.No wind71%30.11 "Hg10 mi
9:54 AM77 °FScattered clouds.5 mph79%30.11 "Hg10 mi
9:02 AM73 °FScattered clouds.3 mph88%30.14 "Hg10 mi
8:54 AM71 °FFog.3 mph93%30.11 "Hg2 mi
8:01 AM68 °FFog.No wind93%30.13 "Hg0 mi
Weather by CustomWeather, © 2014

See weather overviewHow to use our weather pages